User: anonymous   Login
Location: Unspecified
(0.0000°N, 0.0000°E)
Time: 10:03:28
(UTC+00:00)
Language:

STARLINK-3793 - Orbit

View from above orbital plane
View from above orbital plane
View from above satellite
View from above satellite

Ground track
Ground track

The orbit is defined by the following mean orbital elements,

1 52380U          26145.42621036 +.00000000 +00000-0 +11795-3 0 00009
2 52380  53.2120 194.6675 0001142  78.1131 281.9989 15.08838399    00
Epoch (UTC): 25 May 2026 10:13:44
Eccentricity: 0.0001142
inclination: 53.2120°
perigee height: 539 km
apogee height: 541 km
right ascension of ascending node: 194.6675°
argument of perigee: 78.1131°
revolutions per day: 15.08838399
mean anomaly at epoch: 281.9989°

The dashed part of the orbit path shows where the satellite is in the earth's shadow,  

DLR